Tracking 30746 objects as of 19-Jun-2025
HD Live streaming from Space Station
objects crossing your sky now

FENGYUN 1C DEB

Track FENGYUN 1C DEB now!
10-day predictions


NORAD ID: 31033
Int'l Code: 1999-025BEB
Perigee: 699.0 km
Apogee: 917.7 km
Inclination: 98.4 °
Period: 100.9 minutes
Semi major axis: 7179 km
RCS: 0.0023 m2 (small)
Launch date: May 10, 1999
Source: People's Republic of China (PRC)
Launch site: Taiyaun Space Center, China (TSC)

Note: This is SATELLITE DEBRIS
Your satellite tracking list
Your tracking list is empty




NASA's NSSDC Master Catalog

Two Line Element Set (TLE):
1 31033U 99025BEB 25168.72912347  .00000357  00000-0  14577-3 0  9994
2 31033  98.4167 153.3711 0152354 274.1775 268.6430 14.27171897948064
Source of the keplerian elements: AFSPC